| time (UTC) | temp F | wind direction | speed MPH | gust MPH | rain 1hr in | rain 24hr in | rain mn in | humidity % | barometer mb |
| 20260902033458 | 75 | 228 | 0.0 | 0.0 | 0.00 | 0.00 | 0.00 | 89 | 1012.8 |
| 20260902032958 | 75 | 228 | 0.0 | 1.0 | 0.00 | 0.00 | 0.00 | 88 | 1012.8 |
| 20260902032458 | 75 | 228 | 0.0 | 1.0 | 0.00 | 0.00 | 0.00 | 88 | 1012.8 |
| 20260902031958 | 75 | 228 | 0.0 | 0.0 | 0.00 | 0.00 | 0.00 | 88 | 1012.8 |
| 20260902031458 | 75 | 228 | 0.0 | 0.0 | 0.00 | 0.00 | 0.00 | 88 | 1012.9 |
| 20260902030958 | 75 | 228 | 0.0 | 0.0 | 0.00 | 0.00 | 0.00 | 88 | 1013.1 |
| 20260902030458 | 75 | 228 | 0.0 | 0.0 | 0.00 | 0.00 | 0.00 | 88 | 1013.2 |
| 20260902022959 | 76 | 228 | 0.0 | 2.0 | 0.00 | 0.00 | 0.00 | 88 | 1012.9 |
| 20260902022458 | 76 | 239 | 0.0 | 0.0 | 0.00 | 0.00 | 0.00 | 87 | 1013.0 |
| 20260902021958 | 76 | 239 | 0.0 | 0.0 | 0.00 | 0.00 | 0.00 | 87 | 1012.9 |
| 20260902021459 | 76 | 239 | 0.0 | 0.0 | 0.00 | 0.00 | 0.00 | 87 | 1012.8 |
| 20260902020959 | 76 | 239 | 0.0 | 0.0 | 0.00 | 0.00 | 0.00 | 87 | 1013.1 |
| 20260902020459 | 76 | 239 | 0.0 | 0.0 | 0.00 | 0.00 | 0.00 | 87 | 1012.9 |
| 20260902020001 | 77 | 239 | 0.0 | 0.0 | 0.00 | 0.00 | 0.00 | 88 | 1012.8 |
| 20260902015459 | 77 | 239 | 0.0 | 1.0 | 0.00 | 0.00 | 0.00 | 87 | 1012.9 |
| 20260902014959 | 77 | 239 | 0.0 | 1.0 | 0.00 | 0.00 | 0.00 | 87 | 1012.9 |
| 20260902014459 | 77 | 239 | 0.0 | 1.0 | 0.00 | 0.00 | 0.00 | 85 | 1013.0 |
| 20260902013959 | 77 | 239 | 0.0 | 0.0 | 0.00 | 0.00 | 0.00 | 85 | 1012.9 |
| 20260902013500 | 77 | 239 | 0.0 | 0.0 | 0.00 | 0.00 | 0.00 | 85 | 1013.0 |
| 20260902012959 | 78 | 239 | 0.0 | 0.0 | 0.00 | 0.00 | 0.00 | 85 | 1013.0 |
| 20260902012459 | 78 | 239 | 0.0 | 0.0 | 0.00 | 0.00 | 0.00 | 84 | 1012.9 |
| 20260902011959 | 78 | 239 | 0.0 | 0.0 | 0.00 | 0.00 | 0.00 | 84 | 1012.9 |
| 20260902011459 | 78 | 238 | 0.0 | 0.0 | 0.00 | 0.00 | 0.00 | 84 | 1012.7 |
| 20260902010959 | 79 | 239 | 0.0 | 0.0 | 0.00 | 0.00 | 0.00 | 84 | 1012.5 |
| 20260902010459 | 79 | 238 | 0.0 | 0.0 | 0.00 | 0.00 | 0.00 | 84 | 1012.4 |
| 20260902010001 | 79 | 239 | 0.0 | 2.0 | 0.00 | 0.00 | 0.00 | 84 | 1012.3 |
| 20260902005459 | 79 | 238 | 0.0 | 2.0 | 0.00 | 0.00 | 0.00 | 84 | 1012.2 |
| 20260902004959 | 80 | 282 | 0.0 | 0.0 | 0.00 | 0.00 | 0.00 | 85 | 1012.2 |
| 20260902004459 | 80 | 282 | 0.0 | 1.0 | 0.00 | 0.00 | 0.00 | 84 | 1012.3 |
| 20260902003959 | 80 | 288 | 0.0 | 3.0 | 0.00 | 0.00 | 0.00 | 84 | 1012.3 |
| 20260902003459 | 80 | 215 | 0.0 | 1.0 | 0.00 | 0.00 | 0.00 | 84 | 1012.4 |
| 20260902002959 | 80 | 250 | 0.0 | 1.0 | 0.00 | 0.00 | 0.00 | 84 | 1012.4 |
| 20260902002459 | 81 | 197 | 0.0 | 4.0 | 0.00 | 0.00 | 0.00 | 84 | 1012.5 |
| 20260902001959 | 81 | 174 | 0.0 | 4.0 | 0.00 | 0.00 | 0.00 | 84 | 1012.5 |
| 20260902001459 | 81 | 213 | 0.0 | 1.0 | 0.00 | 0.00 | 0.00 | 84 | 1012.7 |
| 20260902000959 | 81 | 198 | 0.0 | 3.0 | 0.00 | 0.00 | 0.00 | 84 | 1012.8 |
| 20260902000459 | 81 | 163 | 0.0 | 4.0 | 0.00 | 0.00 | 0.00 | 84 | 1012.8 |
| 20260902000001 | 81 | 280 | 0.0 | 4.0 | 0.00 | 0.00 | 0.00 | 84 | 1012.9 |
| 20260901235459 | 82 | 241 | 0.0 | 6.0 | 0.00 | 0.00 | 0.00 | 84 | 1013.0 |
| 20260901234959 | 82 | 203 | 0.0 | 6.0 | 0.00 | 0.00 | 0.00 | 84 | 1012.9 |
| 20260901234500 | 82 | 296 | 0.0 | 2.0 | 0.00 | 0.00 | 0.00 | 84 | 1012.9 |
| 20260901233959 | 82 | 214 | 0.0 | 2.0 | 0.00 | 0.00 | 0.00 | 84 | 1012.8 |
| 20260901233459 | 82 | 203 | 0.0 | 3.0 | 0.00 | 0.00 | 0.00 | 84 | 1013.0 |
| 20260901232959 | 82 | 200 | 1.0 | 3.0 | 0.00 | 0.00 | 0.00 | 84 | 1013.2 |
| 20260901232500 | 82 | 276 | 0.0 | 3.0 | 0.00 | 0.00 | 0.00 | 84 | 1013.0 |
| 20260901231959 | 82 | 300 | 1.0 | 3.0 | 0.00 | 0.00 | 0.00 | 83 | 1013.0 |
| 20260901231459 | 82 | 290 | 0.0 | 3.0 | 0.00 | 0.00 | 0.00 | 82 | 1012.9 |
| 20260901231000 | 82 | 286 | 0.0 | 5.0 | 0.00 | 0.00 | 0.00 | 82 | 1013.0 |
| 20260901230459 | 82 | 220 | 1.0 | 5.0 | 0.00 | 0.00 | 0.00 | 82 | 1012.9 |
| 20260901230001 | 82 | 271 | 1.0 | 8.0 | 0.00 | 0.00 | 0.00 | 82 | 1012.8 |
| 20260901225459 | 83 | 190 | 1.0 | 8.0 | 0.00 | 0.00 | 0.00 | 82 | 1012.9 |
| 20260901224959 | 83 | 271 | 0.0 | 5.0 | 0.00 | 0.00 | 0.00 | 82 | 1012.8 |
| 20260901224459 | 83 | 280 | 0.0 | 5.0 | 0.00 | 0.00 | 0.00 | 83 | 1012.8 |
| 20260901223959 | 83 | 234 | 1.0 | 5.0 | 0.00 | 0.00 | 0.00 | 82 | 1012.9 |
| 20260901223459 | 83 | 251 | 0.0 | 4.0 | 0.00 | 0.00 | 0.00 | 83 | 1012.8 |
| 20260901222959 | 83 | 214 | 1.0 | 5.0 | 0.00 | 0.00 | 0.00 | 83 | 1012.9 |
| 20260901222459 | 83 | 201 | 1.0 | 6.0 | 0.00 | 0.00 | 0.00 | 83 | 1013.0 |
| 20260901221959 | 83 | 286 | 1.0 | 4.0 | 0.00 | 0.00 | 0.00 | 83 | 1013.1 |
| 20260901221459 | 84 | 331 | 1.0 | 8.0 | 0.00 | 0.00 | 0.00 | 83 | 1013.2 |
| 20260901220959 | 84 | 221 | 3.0 | 11.0 | 0.00 | 0.00 | 0.00 | 81 | 1013.3 |
| 20260901220459 | 85 | 223 | 3.0 | 11.0 | 0.00 | 0.00 | 0.00 | 80 | 1013.2 |
| 20260901220001 | 86 | 307 | 2.0 | 8.0 | 0.00 | 0.00 | 0.00 | 80 | 1013.2 |
| 20260901215500 | 86 | 231 | 3.0 | 8.0 | 0.00 | 0.00 | 0.00 | 80 | 1013.1 |
| 20260901214959 | 85 | 349 | 2.0 | 8.0 | 0.00 | 0.00 | 0.00 | 81 | 1013.1 |
| 20260901214459 | 86 | 311 | 2.0 | 8.0 | 0.00 | 0.00 | 0.00 | 78 | 1012.9 |
| 20260901213959 | 87 | 266 | 2.0 | 7.0 | 0.00 | 0.00 | 0.00 | 79 | 1013.0 |
| 20260901213459 | 87 | 207 | 3.0 | 8.0 | 0.00 | 0.00 | 0.00 | 78 | 1012.7 |
| 20260901212959 | 87 | 349 | 2.0 | 9.0 | 0.00 | 0.00 | 0.00 | 80 | 1012.7 |
| 20260901212459 | 86 | 230 | 3.0 | 14.0 | 0.00 | 0.00 | 0.00 | 78 | 1012.6 |
| 20260901212000 | 87 | 295 | 4.0 | 14.0 | 0.00 | 0.00 | 0.00 | 77 | 1012.7 |
| 20260901211458 | 87 | 301 | 2.0 | 10.0 | 0.00 | 0.00 | 0.00 | 78 | 1012.6 |
| 20260901210958 | 87 | 216 | 2.0 | 10.0 | 0.00 | 0.00 | 0.00 | 79 | 1012.5 |
| 20260901210458 | 87 | 303 | 3.0 | 10.0 | 0.00 | 0.00 | 0.00 | 78 | 1012.5 |
| 20260901205959 | 88 | 246 | 2.0 | 11.0 | 0.00 | 0.00 | 0.00 | 79 | 1012.5 |
| 20260901205500 | 87 | 232 | 2.0 | 11.0 | 0.00 | 0.00 | 0.00 | 80 | 1012.5 |
| 20260901204959 | 86 | 190 | 4.0 | 9.0 | 0.00 | 0.00 | 0.00 | 80 | 1012.5 |
| 20260901204459 | 86 | 242 | 2.0 | 9.0 | 0.00 | 0.00 | 0.00 | 80 | 1012.7 |
| 20260901193959 | 86 | 345 | 3.0 | 8.0 | 0.00 | 0.00 | 0.00 | 82 | 1012.8 |
| 20260901193459 | 86 | 213 | 2.0 | 8.0 | 0.00 | 0.00 | 0.00 | 83 | 1012.9 |
| 20260901192959 | 85 | 248 | 1.0 | 6.0 | 0.00 | 0.00 | 0.00 | 83 | 1012.9 |
| 20260901192459 | 85 | 315 | 2.0 | 6.0 | 0.00 | 0.00 | 0.00 | 83 | 1012.9 |
| 20260901191959 | 86 | 291 | 2.0 | 5.0 | 0.00 | 0.00 | 0.00 | 82 | 1013.0 |
| 20260901191459 | 86 | 138 | 1.0 | 7.0 | 0.00 | 0.00 | 0.00 | 82 | 1012.9 |
| 20260901190959 | 86 | 230 | 3.0 | 7.0 | 0.00 | 0.00 | 0.00 | 81 | 1013.0 |
| 20260901190459 | 87 | 244 | 2.0 | 5.0 | 0.00 | 0.00 | 0.00 | 80 | 1013.0 |
| 20260901190000 | 87 | 215 | 3.0 | 5.0 | 0.00 | 0.00 | 0.00 | 81 | 1013.0 |
| 20260901185459 | 86 | 313 | 3.0 | 5.0 | 0.00 | 0.00 | 0.00 | 83 | 1012.9 |
| 20260901184958 | 85 | 315 | 1.0 | 4.0 | 0.00 | 0.00 | 0.00 | 84 | 1013.0 |
| 20260901184458 | 85 | 314 | 0.0 | 4.0 | 0.00 | 0.00 | 0.00 | 83 | 1013.0 |
| 20260901183959 | 85 | 266 | 1.0 | 4.0 | 0.00 | 0.00 | 0.00 | 83 | 1013.0 |
| 20260901183458 | 85 | 247 | 1.0 | 4.0 | 0.00 | 0.00 | 0.00 | 83 | 1013.0 |
| 20260901182959 | 85 | 238 | 1.0 | 7.0 | 0.00 | 0.00 | 0.00 | 83 | 1013.0 |
| 20260901182459 | 85 | 212 | 2.0 | 7.0 | 0.00 | 0.00 | 0.00 | 82 | 1013.1 |
| 20260901181959 | 86 | 226 | 2.0 | 6.0 | 0.00 | 0.00 | 0.00 | 80 | 1013.1 |
| 20260901181459 | 87 | 271 | 3.0 | 8.0 | 0.00 | 0.00 | 0.00 | 80 | 1013.1 |
| 20260901180959 | 87 | 266 | 3.0 | 8.0 | 0.00 | 0.00 | 0.00 | 81 | 1013.1 |
| 20260901180458 | 86 | 250 | 3.0 | 7.0 | 0.00 | 0.00 | 0.00 | 81 | 1013.0 |
| 20260901180001 | 86 | 335 | 2.0 | 5.0 | 0.00 | 0.00 | 0.00 | 81 | 1013.0 |
| 20260901175459 | 86 | 216 | 2.0 | 4.0 | 0.00 | 0.00 | 0.00 | 82 | 1013.2 |
| 20260901174959 | 85 | 342 | 1.0 | 7.0 | 0.00 | 0.00 | 0.00 | 83 | 1013.2 |
| 20260901174459 | 85 | 250 | 3.0 | 7.0 | 0.00 | 0.00 | 0.00 | 82 | 1013.3 |
| 20260901174000 | 85 | 177 | 2.0 | 8.0 | 0.00 | 0.00 | 0.00 | 81 | 1013.3 |
| 20260901173459 | 86 | 230 | 4.0 | 7.0 | 0.00 | 0.00 | 0.00 | 82 | 1013.3 |
| 20260901172959 | 87 | 309 | 2.0 | 6.0 | 0.00 | 0.00 | 0.00 | 80 | 1013.3 |
| 20260901161500 | 84 | 240 | 1.0 | 2.0 | 0.00 | 0.00 | 0.00 | 84 | 1013.4 |
| 20260901160959 | 83 | 174 | 1.0 | 3.0 | 0.00 | 0.00 | 0.00 | 84 | 1013.4 |
| 20260901160459 | 82 | 212 | 0.0 | 2.0 | 0.00 | 0.00 | 0.00 | 84 | 1013.4 |
| 20260901160000 | 82 | 228 | 1.0 | 4.0 | 0.00 | 0.00 | 0.00 | 84 | 1013.3 |
| 20260901155459 | 83 | 200 | 0.0 | 4.0 | 0.00 | 0.00 | 0.00 | 82 | 1013.4 |
| 20260901154959 | 83 | 315 | 0.0 | 1.0 | 0.00 | 0.00 | 0.00 | 82 | 1013.4 |
| 20260901154459 | 83 | 266 | 0.0 | 2.0 | 0.00 | 0.00 | 0.00 | 84 | 1013.4 |
| 20260901150959 | 82 | 239 | 1.0 | 3.0 | 0.00 | 0.00 | 0.00 | 84 | 1013.4 |
| 20260901150459 | 82 | 230 | 1.0 | 6.0 | 0.00 | 0.00 | 0.00 | 85 | 1013.5 |
| 20260901150001 | 81 | 225 | 1.0 | 6.0 | 0.00 | 0.09 | 0.00 | 85 | 1013.6 |
| 20260901145459 | 82 | 336 | 2.0 | 4.0 | 0.00 | 0.09 | 0.00 | 84 | 1013.6 |
| 20260901144959 | 81 | 232 | 1.0 | 4.0 | 0.00 | 0.09 | 0.00 | 86 | 1013.5 |
| 20260901144459 | 80 | 199 | 1.0 | 4.0 | 0.00 | 0.09 | 0.00 | 85 | 1013.5 |
| 20260901143959 | 80 | 324 | 1.0 | 4.0 | 0.00 | 0.09 | 0.00 | 87 | 1013.6 |
| 20260901143458 | 79 | 281 | 1.0 | 4.0 | 0.00 | 0.09 | 0.00 | 86 | 1013.5 |
| 20260901142959 | 80 | 226 | 1.0 | 5.0 | 0.00 | 0.09 | 0.00 | 85 | 1013.5 |
| 20260901142500 | 81 | 232 | 2.0 | 5.0 | 0.00 | 0.09 | 0.00 | 85 | 1013.5 |
| 20260901141959 | 80 | 320 | 2.0 | 8.0 | 0.00 | 0.09 | 0.00 | 86 | 1013.4 |
| 20260901141459 | 80 | 196 | 2.0 | 8.0 | 0.00 | 0.09 | 0.00 | 86 | 1013.5 |
| 20260901140959 | 79 | 219 | 2.0 | 5.0 | 0.00 | 0.09 | 0.00 | 87 | 1013.5 |
| 20260901140500 | 79 | 295 | 2.0 | 4.0 | 0.00 | 0.09 | 0.00 | 87 | 1013.6 |
| 20260901135959 | 78 | 314 | 2.0 | 4.0 | 0.00 | 0.11 | 0.00 | 87 | 1013.4 |
| 20260901135459 | 78 | 319 | 2.0 | 3.0 | 0.00 | 0.11 | 0.00 | 88 | 1013.3 |
| 20260901134959 | 78 | 287 | 1.0 | 5.0 | 0.00 | 0.11 | 0.00 | 89 | 1013.3 |
| 20260901134500 | 77 | 234 | 0.0 | 5.0 | 0.00 | 0.11 | 0.00 | 90 | 1013.4 |
| 20260901133959 | 76 | 205 | 2.0 | 3.0 | 0.00 | 0.11 | 0.00 | 90 | 1013.5 |
| 20260901133459 | 76 | 226 | 2.0 | 3.0 | 0.00 | 0.11 | 0.00 | 91 | 1013.5 |
| 20260901132959 | 76 | 222 | 1.0 | 5.0 | 0.00 | 0.11 | 0.00 | 91 | 1013.5 |
| 20260901132459 | 75 | 223 | 2.0 | 5.0 | 0.00 | 0.11 | 0.00 | 91 | 1013.5 |
| 20260901131959 | 75 | 197 | 2.0 | 4.0 | 0.00 | 0.11 | 0.00 | 92 | 1013.5 |
| 20260901131459 | 74 | 221 | 1.0 | 4.0 | 0.00 | 0.11 | 0.00 | 92 | 1013.5 |
| 20260901130959 | 74 | 199 | 1.0 | 6.0 | 0.00 | 0.11 | 0.00 | 92 | 1013.5 |
| 20260901130459 | 74 | 241 | 1.0 | 6.0 | 0.00 | 0.11 | 0.00 | 92 | 1013.3 |
| 20260901130002 | 73 | 233 | 2.0 | 4.0 | 0.00 | 0.11 | 0.00 | 92 | 1013.4 |
| 20260901125458 | 73 | 225 | 1.0 | 3.0 | 0.00 | 0.11 | 0.00 | 92 | 1013.5 |
| 20260901124959 | 71 | 223 | 1.0 | 3.0 | 0.00 | 0.11 | 0.00 | 92 | 1013.5 |
| 20260901124459 | 70 | 199 | 1.0 | 2.0 | 0.00 | 0.11 | 0.00 | 92 | 1013.6 |
| 20260901123958 | 69 | 276 | 0.0 | 1.0 | 0.00 | 0.11 | 0.00 | 92 | 1013.4 |
| 20260901123459 | 69 | 276 | 0.0 | 1.0 | 0.00 | 0.11 | 0.00 | 92 | 1013.5 |
| 20260901122959 | 68 | 276 | 0.0 | 0.0 | 0.00 | 0.11 | 0.00 | 91 | 1013.3 |
| 20260901122459 | 68 | 276 | 0.0 | 0.0 | 0.00 | 0.11 | 0.00 | 91 | 1013.5 |
| 20260901121959 | 68 | 276 | 0.0 | 0.0 | 0.00 | 0.11 | 0.00 | 91 | 1013.5 |
| 20260901121458 | 68 | 276 | 0.0 | 0.0 | 0.00 | 0.11 | 0.00 | 91 | 1013.4 |
| 20260901120958 | 67 | 276 | 0.0 | 0.0 | 0.00 | 0.11 | 0.00 | 91 | 1013.3 |
| 20260901120459 | 67 | 276 | 0.0 | 0.0 | 0.00 | 0.11 | 0.00 | 91 | 1013.1 |
| 20260901120000 | 67 | 276 | 0.0 | 0.0 | 0.00 | 0.11 | 0.00 | 91 | 1013.0 |
| 20260901115459 | 67 | 276 | 0.0 | 0.0 | 0.00 | 0.11 | 0.00 | 91 | 1013.0 |
| 20260901114959 | 67 | 276 | 0.0 | 0.0 | 0.00 | 0.11 | 0.00 | 91 | 1013.0 |
| 20260901114459 | 67 | 276 | 0.0 | 0.0 | 0.00 | 0.11 | 0.00 | 91 | 1012.9 |
| 20260901113958 | 67 | 276 | 0.0 | 0.0 | 0.00 | 0.11 | 0.00 | 91 | 1012.8 |
| 20260901113500 | 67 | 276 | 0.0 | 0.0 | 0.00 | 0.11 | 0.00 | 91 | 1012.7 |
| 20260901112958 | 67 | 276 | 0.0 | 0.0 | 0.00 | 0.11 | 0.00 | 91 | 1012.6 |
| 20260901112459 | 67 | 276 | 0.0 | 0.0 | 0.00 | 0.11 | 0.00 | 91 | 1012.7 |
| 20260901111959 | 67 | 276 | 0.0 | 0.0 | 0.00 | 0.11 | 0.00 | 91 | 1012.6 |
| 20260901111459 | 67 | 276 | 0.0 | 0.0 | 0.00 | 0.11 | 0.00 | 91 | 1012.6 |
| 20260901110959 | 67 | 276 | 0.0 | 0.0 | 0.00 | 0.11 | 0.00 | 91 | 1012.6 |
| 20260901110459 | 68 | 276 | 0.0 | 0.0 | 0.00 | 0.11 | 0.00 | 90 | 1012.6 |
| 20260901105959 | 68 | 276 | 0.0 | 0.0 | 0.00 | 0.11 | 0.00 | 90 | 1012.5 |
| 20260901105459 | 68 | 276 | 0.0 | 0.0 | 0.00 | 0.11 | 0.00 | 90 | 1012.5 |
| 20260901104959 | 68 | 276 | 0.0 | 0.0 | 0.00 | 0.11 | 0.00 | 90 | 1012.5 |
| 20260901104458 | 68 | 276 | 0.0 | 0.0 | 0.00 | 0.11 | 0.00 | 90 | 1012.4 |
| 20260901103958 | 68 | 276 | 0.0 | 0.0 | 0.00 | 0.11 | 0.00 | 90 | 1012.4 |
| 20260901103459 | 68 | 276 | 0.0 | 0.0 | 0.00 | 0.11 | 0.00 | 90 | 1012.4 |
| 20260901102959 | 68 | 276 | 0.0 | 0.0 | 0.00 | 0.11 | 0.00 | 90 | 1012.5 |
| 20260901102458 | 68 | 276 | 0.0 | 0.0 | 0.00 | 0.11 | 0.00 | 90 | 1012.5 |
| 20260901101959 | 68 | 276 | 0.0 | 0.0 | 0.00 | 0.11 | 0.00 | 90 | 1012.5 |
| 20260901101458 | 68 | 276 | 0.0 | 1.0 | 0.00 | 0.11 | 0.00 | 90 | 1012.5 |
| 20260901100959 | 69 | 276 | 0.0 | 1.0 | 0.00 | 0.11 | 0.00 | 91 | 1012.5 |
| 20260901100458 | 69 | 276 | 0.0 | 0.0 | 0.00 | 0.11 | 0.00 | 90 | 1012.5 |
| 20260901100001 | 69 | 276 | 0.0 | 0.0 | 0.00 | 0.11 | 0.00 | 90 | 1012.5 |
| 20260901095459 | 69 | 276 | 0.0 | 0.0 | 0.00 | 0.11 | 0.00 | 90 | 1012.5 |
| 20260901094959 | 69 | 276 | 0.0 | 0.0 | 0.00 | 0.11 | 0.00 | 90 | 1012.4 |
| 20260901094459 | 69 | 276 | 0.0 | 0.0 | 0.00 | 0.11 | 0.00 | 90 | 1012.3 |
| 20260901093959 | 69 | 276 | 0.0 | 0.0 | 0.00 | 0.11 | 0.00 | 90 | 1012.4 |
| 20260901093459 | 69 | 276 | 0.0 | 0.0 | 0.00 | 0.11 | 0.00 | 90 | 1012.4 |
| 20260901092959 | 69 | 276 | 0.0 | 0.0 | 0.00 | 0.11 | 0.00 | 90 | 1012.4 |
| 20260901092458 | 69 | 276 | 0.0 | 0.0 | 0.00 | 0.11 | 0.00 | 90 | 1012.4 |
| 20260901091958 | 69 | 276 | 0.0 | 0.0 | 0.00 | 0.11 | 0.00 | 90 | 1012.4 |
| 20260901091458 | 69 | 276 | 0.0 | 0.0 | 0.00 | 0.11 | 0.00 | 90 | 1012.4 |
| 20260901090958 | 70 | 276 | 0.0 | 0.0 | 0.00 | 0.11 | 0.00 | 90 | 1012.4 |
| 20260901090459 | 70 | 276 | 0.0 | 0.0 | 0.00 | 0.11 | 0.00 | 90 | 1012.4 |
| 20260901090000 | 70 | 276 | 0.0 | 0.0 | 0.00 | 0.11 | 0.00 | 90 | 1012.4 |
| 20260901085459 | 70 | 276 | 0.0 | 0.0 | 0.00 | 0.11 | 0.00 | 90 | 1012.4 |
| 20260901084959 | 70 | 276 | 0.0 | 0.0 | 0.00 | 0.11 | 0.00 | 90 | 1012.4 |
| 20260901084458 | 70 | 276 | 0.0 | 0.0 | 0.00 | 0.11 | 0.00 | 90 | 1012.3 |
| 20260901083959 | 70 | 276 | 0.0 | 0.0 | 0.00 | 0.11 | 0.00 | 90 | 1012.4 |
| 20260901083458 | 70 | 276 | 0.0 | 0.0 | 0.00 | 0.11 | 0.00 | 90 | 1012.4 |
| 20260901082959 | 70 | 276 | 0.0 | 0.0 | 0.00 | 0.11 | 0.00 | 90 | 1012.4 |
| 20260901082458 | 70 | 276 | 0.0 | 0.0 | 0.00 | 0.11 | 0.00 | 90 | 1012.4 |
| 20260901081958 | 70 | 276 | 0.0 | 0.0 | 0.00 | 0.11 | 0.00 | 90 | 1012.4 |
| 20260901081458 | 70 | 276 | 0.0 | 0.0 | 0.00 | 0.11 | 0.00 | 90 | 1012.5 |
| 20260901080958 | 70 | 276 | 0.0 | 0.0 | 0.00 | 0.11 | 0.00 | 90 | 1012.3 |
| 20260901080458 | 70 | 276 | 0.0 | 0.0 | 0.00 | 0.11 | 0.00 | 90 | 1012.3 |
| 20260901075958 | 70 | 276 | 0.0 | 0.0 | 0.00 | 0.11 | 0.00 | 90 | 1012.3 |
| 20260901075459 | 70 | 276 | 0.0 | 0.0 | 0.00 | 0.11 | 0.00 | 90 | 1012.3 |
| 20260901074958 | 70 | 276 | 0.0 | 0.0 | 0.00 | 0.11 | 0.00 | 89 | 1012.2 |
| 20260901063958 | 70 | 303 | 0.0 | 0.0 | 0.00 | 0.11 | 0.00 | 88 | 1012.1 |
| 20260901063458 | 70 | 303 | 0.0 | 0.0 | 0.00 | 0.11 | 0.00 | 88 | 1012.3 |
| 20260901062958 | 71 | 303 | 0.0 | 0.0 | 0.00 | 0.11 | 0.00 | 88 | 1012.2 |
| 20260901062458 | 71 | 303 | 0.0 | 0.0 | 0.00 | 0.11 | 0.00 | 88 | 1012.2 |
| 20260901061958 | 71 | 303 | 0.0 | 0.0 | 0.00 | 0.11 | 0.00 | 88 | 1012.2 |
| 20260901061458 | 71 | 303 | 0.0 | 0.0 | 0.00 | 0.11 | 0.00 | 88 | 1012.2 |
| 20260901060959 | 71 | 303 | 0.0 | 0.0 | 0.00 | 0.11 | 0.00 | 88 | 1012.2 |
| 20260901053459 | 72 | 303 | 0.0 | 1.0 | 0.00 | 0.11 | 0.00 | 88 | 1012.5 |
| 20260901052958 | 72 | 320 | 0.0 | 0.0 | 0.00 | 0.11 | 0.00 | 88 | 1012.5 |
| 20260901052459 | 72 | 320 | 0.0 | 2.0 | 0.00 | 0.11 | 0.00 | 88 | 1012.5 |
| 20260901052000 | 72 | 320 | 0.0 | 2.0 | 0.00 | 0.11 | 0.00 | 88 | 1012.4 |
| 20260901051458 | 72 | 299 | 0.0 | 1.0 | 0.00 | 0.11 | 0.00 | 87 | 1012.5 |
| 20260901050958 | 72 | 299 | 0.0 | 1.0 | 0.00 | 0.11 | 0.00 | 87 | 1012.4 |
| 20260901050458 | 72 | 299 | 0.0 | 1.0 | 0.00 | 0.11 | 0.00 | 87 | 1012.4 |
| 20260901045959 | 72 | 299 | 0.0 | 1.0 | 0.00 | 0.11 | 0.00 | 86 | 1012.4 |
| 20260901045459 | 72 | 299 | 0.0 | 0.0 | 0.00 | 0.11 | 0.00 | 86 | 1012.5 |
| 20260901044958 | 73 | 299 | 0.0 | 0.0 | 0.00 | 0.11 | 0.00 | 86 | 1012.5 |
| 20260901044459 | 73 | 299 | 0.0 | 0.0 | 0.00 | 0.11 | 0.00 | 86 | 1012.4 |
| 20260901043959 | 73 | 299 | 0.0 | 0.0 | 0.00 | 0.11 | 0.00 | 86 | 1012.4 |
| 20260901043458 | 73 | 299 | 0.0 | 0.0 | 0.00 | 0.11 | 0.00 | 86 | 1012.4 |
| 20260901042959 | 73 | 299 | 0.0 | 0.0 | 0.00 | 0.11 | 0.00 | 86 | 1012.4 |
| 20260901042459 | 73 | 299 | 0.0 | 0.0 | 0.00 | 0.11 | 0.00 | 86 | 1012.4 |
| 20260901041958 | 74 | 299 | 0.0 | 0.0 | 0.00 | 0.11 | 0.00 | 86 | 1012.5 |
| 20260901041459 | 74 | 299 | 0.0 | 0.0 | 0.00 | 0.11 | 0.00 | 86 | 1012.5 |
| 20260901040959 | 74 | 299 | 0.0 | 1.0 | 0.00 | 0.11 | 0.00 | 86 | 1012.5 |
| 20260901040459 | 74 | 299 | 0.0 | 1.0 | 0.00 | 0.11 | 0.00 | 86 | 1012.6 |